sat.trackr.live / text

‹ back to catalog

2025-313BF

NORAD 67755 · 2025-313BF

PAYLOAD ACTIVE UNKNOWN

§ Identity

Operator
Country
TBD
Launch date
2025-12-28
Launch site
VOSTO
Launch vehicle
Mass (kg)
RCS (m²)

External: N2YO · Heavens-Above · Gunter

§ Orbital elements

Epoch: 2026-05-23T04:22:03.990432Z

Period
93.28 min
Inclination
97.3901°
Eccentricity
0.0005377
Mean motion
15.43709463 rev/d
Perigee alt
431.5 km
Apogee alt
438.8 km
Semi-major
6,813.3 km
B*
5.7751e-4
RAAN
220.2671°
Arg perigee
105.9823°
Mean anomaly
254.2018°
Rev number
1,796

§ Raw data

2025-313BF1 67755U 25313BF  26143.18199063  .00026042  00000+0  57751-3 0  99982 67755  97.3901 220.2671 0005377 105.9823 254.2018 15.43709463 17968

JSON: /api/v1/satellites/67755 · /tle

For live sub-satellite position, see the globe view (requires WebGL).

§ Visibility from observer

Set your observer location to see the next 7 days of passes ≥ 10°. The values pass through the URL so the page stays shareable.

No JS? Fill the form by hand. The geolocation button needs JavaScript.